Regional Weather Roundup
Issued by NWS Newport/Morehead, NC

Current Version | Previous Version | Text Only | Print | Product List | Glossary Off
Versions: 1 2 3 4 5 6 7 8 9 10 11 12 13 14 15 16 17 18 19 20 21 22 23 24 25 26 27 28 29 30 31 32 33 34 35 36 37 38 39 40 41 42 43 44 45 46 47 48 49 50
000 ASUS42 KMHX 230213 RWRMHX WEATHER ROUNDUP FOR EASTERN NORTH CAROLINA NATIONAL WEATHER SERVICE NEWPORT/MOREHEAD CITY NC 1000 PM EDT SAT JUL 22 2017 NOTE: "FAIR" INDICATES FEW OR NO CLOUDS BELOW 12,000 FEET WITH NO SIGNIFICANT WEATHER AND/OR OBSTRUCTIONS TO VISIBILITY NCZ015>017-031-032-045>047-102-103-230300- NORTH COAST CITY SKY/WX TMP DP RH WIND PRES REMARKS EDENTON CLEAR 86 76 72 S15 29.88R ELIZABETH CITY CLOUDY 85 78 80 S14 29.87R KITTY HAWK CLEAR 83 73 70 SW10G17 29.87S MANTEO CLEAR 83 74 74 SW17 29.89S $$ NCZ045>047-081-094-103-104-230300- CENTRAL COAST CITY SKY/WX TMP DP RH WIND PRES REMARKS FRISCO NOT AVBL $$ NCZ095-097-098-100-101-230300- SOUTHERN COAST CITY SKY/WX TMP DP RH WIND PRES REMARKS BEAUFORT CLEAR 82 79 90 SW16 29.95R CEDAR ISLAND NOT AVBL JACKSONVILLE CLEAR 80 76 87 SW8 29.94R PINEY ISLAND CLEAR N/A N/A N/A S16 29.93R WILMINGTON CLEAR 81 77 88 SW13 29.95R $$ NCZ011>013-027>030-043-044-078>080-089-090>093-098-230300- COASTAL PLAIN CITY SKY/WX TMP DP RH WIND PRES REMARKS AHOSKIE N/A 84 75 74 S5 29.87R CLINTON CLEAR 83 78 83 SW3 29.93R ELIZABETHTOWN NOT AVBL GOLDSBORO NOT AVBL GREENVILLE CLEAR 86 75 70 SW12 29.91R HAVELOCK CLEAR 81 75 82 SW13 29.95R KENANSVILLE CLEAR 82 73 74 S3 29.92S KINSTON CLEAR 84 73 70 S13 29.91R NEW BERN CLEAR 80 76 87 S12 29.93S RICHLANDS CLEAR 80 73 79 S10 29.93S ROCKY MOUNT CLEAR 86 75 69 S10 29.88R WASHINGTON CLEAR 83 74 74 S8 29.90R WHITEVILLE CLEAR 82 76 81 S6 29.94R $$ AMZ130-135-150-152-154-156-158-170-250-252-270-ANZ085-086-088-633-658-670-230300- MARINE OBSERVATIONS STATION/POSITION TIME TEMP WIND PRES WAVE SWELL AIR SEA DIR/SP/G HT/PER HT/PER (UTC) (F) (DEG/KT/KT) (MB) (FT/S) (FT/S) CHESAPEAKE LIGHT NOT AVBL 64 E VA BEACH 0150 82 81 210/ 19/ 23 1011.3 5/ 6 2/ 9 DUCK 0148 84 61 210/ 18/ 22 1010.8 2 E DUCK 0200 63 N/A 2/11 OREGON INLET 0142 83 86 200/ 23/ 25 1012.0 13E OREGON INLT 0148 80 N/A 4/ 5 2/ 9 HATTERAS CG 0142 78 78 220/ 11/ 15 1013.5 DIAMOND BUOY 0150 84 81 230/ 23/ 27 1013.3 5/ 5 2/ 8 CAPE LOOKOUT 0200 81 220/ 12/ 17 1014.0 BEAUFORT LAB 0142 81 79 210/ 10/ 17 1013.4 30 SE NEW RVR IN 0108 81 81 230/ 17/ 23 1014.2 30 SE NEW RVR IN 0143 81 N/A 5/ 5 2/11 27 SE WRIGHTSVLE 0108 82 82 210/ 16/ 23 1014.1 5 SE WRIGHTSVLE 0108 81 79 200/ 10/ 16 1013.9 225 S CAPE HAT 0150 84 84 220/ 17/ 19 1017.3 4/ 9 3/ 9 41 SE CHARLESTON 0200 83 84 220/ 17/ 21 1015.0 $$

USA.gov is the U.S. government's official web portal to all federal, state and local government web resources and services.